Location: �couen
(49.0206°N, 2.3831°E)
Time: 23:34:00
(UTC+00:00)

Meteor 1-16 Rocket - Pass Details

Date: 16 October 2021
Orbit: 789 x 908 km, 81.2° (Epoch: 27 November)

Event Time Altitude Azimuth Distance (km) Brightness Sun altitude
Rises 17:57:43 0° 172° (S) 3,523 7.4 -10.5°
Reaches altitude 10° 18:00:15 10° 168° (SSE) 2,583 6.6 -10.9°
Maximum altitude 18:05:55 50° 94° (E) 1,130 4.5 -11.8°
Drops below altitude 10° 18:11:32 10° 21° (NNE) 2,559 6.5 -12.7°
Sets 18:14:01 0° 16° (NNE) 3,487 7.2 -13.1°
